Orbital Elements at Epoch 2459000.5 (2020-May-31.0) TDB
Reference: JPL 30 (heliocentric ecliptic J2000)
Element | Value | Uncertainty (1-sigma) | Units |
e | .1367301643455026 | 4.2555e-08 | |
a | 3.008450612670624 | 2.0073e-08 | au |
q | 2.597104665974842 | 1.211e-07 | au |
i | 10.90164667254006 | 4.192e-06 | deg |
node | 166.51315004651 | 2.1684e-05 | deg |
peri | 179.3915324626606 | 2.6326e-05 | deg |
M | 88.11199578689546 | 1.5815e-05 | deg |
tp | 2458534.006825112761 (2019-Feb-19.50682511) | 8.2536e-05 | TDB |
period | 1905.955499698062 5.22 | 1.9075e-05 5.222e-08 | d yr |
n | .1888816397114364 | 1.8904e-09 | deg/d |
Q | 3.419796559366407 | 2.2817e-08 | au |
|
| | Orbit Determination Parameters
Additional Information
|